[[{"header":{"parameterUnit":"m.s-1","parameterCategory":1,"la1":30.2992,"la2":30.254,"lo1":-89.0895,"lo2":-89.0443,"dy":0.0025,"dx":0.0025,"nx":19,"ny":19,"refTime":"2026-05-21T09:00:00:Z","depth":0,"parameterNumber":2,"parameterNumberName":"U-component_of_WINDS"},"data":[0,0,0,-3.4428,-3.443,-3.4539,-3.4539,-3.4676,-3.4677,0,0,0,0,0,0,0,0,0,0,0,-3.4396,-3.4397,-3.4428,-3.4431,-3.4539,-3.4539,-3.4676,-3.4677,0,0,0,0,0,0,0,0,0,0,0,-3.4396,-3.4397,-3.4398,-3.4431,-3.4538,-3.4539,-3.4676,-3.4594,0,0,0,0,0,0,0,0,0,0,-3.4489,-3.446,-3.4396,-3.4398,-3.4432,-3.4538,-3.4539,-3.459,-3.4599,-3.4627,0,-3.4652,0,-3.4667,-3.4687,-3.4687,0,0,0,-3.443,-3.4452,-3.4482,-3.4398,-3.4433,-3.4538,-3.449,-3.4595,-3.4606,-3.4639,-3.4654,-3.4659,-3.467,-3.4687,-3.4688,-3.4853,-3.4853,0,0,-3.4424,-3.4415,-3.4475,-3.4488,-3.4473,-3.4486,-3.4493,-3.4602,-3.4617,-3.4655,-3.4663,-3.4672,-3.4688,-3.4689,-3.4852,-3.4853,0,0,0,-3.4407,-3.4411,-3.4438,-3.4483,-3.4502,-3.4489,-3.4497,-3.4612,-3.4622,-3.4664,-3.4673,-3.4689,-3.4691,-3.4851,-3.4852,-3.4883,0,0,0,-3.4404,-3.4401,-3.4435,-3.443,-3.4501,-3.4559,-3.4506,-3.4614,-3.4627,-3.4673,-3.4689,-3.4692,-3.485,-3.4852,-3.488,-3.4898,0,0,0,-3.4389,-3.4399,-3.4415,-3.443,-3.4476,-3.4557,-3.4573,-3.4617,-3.4633,-3.4687,-3.4693,-3.4849,-3.4851,-3.4878,-3.4895,-3.494,0,0,0,-3.437,-3.4439,-3.4415,-3.4497,-3.4475,-3.4576,-3.4573,-3.4648,-3.4698,-3.469,-3.485,-3.4852,-3.4877,-3.4892,-3.4937,-3.4976,-3.4991,0,0,-3.4452,-3.4449,-3.4498,-3.448,-3.4583,-3.456,-3.4668,-3.4722,-3.4734,-3.4812,-3.4816,-3.4881,-3.4894,-3.4939,-3.5082,-3.5094,0,0,0,-3.4521,-3.4556,-3.4585,-3.4634,-3.4678,-3.4717,-3.4756,-3.4777,-3.4844,-3.4773,-3.491,-3.4918,-3.4945,-3.4964,-3.4974,-3.4998,-3.486,-3.486,-3.486,-3.4623,-3.4638,-3.4719,-3.4748,-3.4795,-3.4836,-3.4876,-3.491,-3.4909,-3.4941,-3.4964,-3.5049,-3.5071,-3.5079,-3.5104,-3.4986,-3.4986,-3.4987,-3.4987,-3.4745,-3.4797,-3.4797,-3.4876,-3.4892,-3.4958,-3.5001,-3.4999,-3.5063,-3.5032,-3.5057,-3.5022,-3.5092,-3.5114,-3.4989,-3.4989,-3.4988,-3.4988,-3.4988,-3.4813,-3.4841,-3.4866,-3.4939,-3.4994,-3.502,-3.5083,-3.5094,-3.5105,-3.5129,-3.5155,-3.5154,-3.5155,-3.5141,-3.5141,-3.5141,-3.5142,-3.5142,-3.5142,-3.4873,-3.4901,-3.4953,-3.5008,-3.5042,-3.5088,-3.5132,-3.5165,-3.5205,-3.5208,-3.5208,-3.5204,-3.5096,-3.5069,-3.5147,-3.5146,-3.5145,-3.5145,-3.5144,-3.4991,-3.4967,-3.5047,-3.5081,-3.5148,-3.5202,-3.5217,-3.5284,-3.5314,-3.5344,-3.5337,-3.5255,-3.5252,-3.5243,-3.5221,-3.5333,-3.5333,-3.5333,-3.5333,-3.5048,-3.5049,-3.5134,-3.5189,-3.5243,-3.5265,-3.5355,-3.5391,-3.5423,-3.5442,-3.5428,-3.5399,-3.539,-3.5392,-3.5381,-3.536,-3.5505,-3.5505,-3.5505,-3.5122,-3.5128,-3.5203,-3.5236,-3.529,-3.5335,-3.5421,-3.5483,-3.5515,-3.5513,-3.5458,-3.5451,-3.5404,-3.5388,-3.5383,-3.5365,-3.5327,0,0]},{"header":{"parameterUnit":"m.s-1","parameterCategory":1,"la1":30.2992,"la2":30.254,"lo1":-89.0895,"lo2":-89.0443,"dy":0.0025,"dx":0.0025,"nx":19,"ny":19,"refTime":"2026-05-21T09:00:00:Z","depth":0,"parameterNumber":3,"parameterNumberName":"V-component_of_WINDS"},"data":[0,0,0,3.9404,3.9405,3.9477,3.9478,3.9564,3.9565,0,0,0,0,0,0,0,0,0,0,0,3.9381,3.9382,3.9404,3.9406,3.9477,3.9478,3.9564,3.9565,0,0,0,0,0,0,0,0,0,0,0,3.9381,3.9382,3.9383,3.9406,3.9477,3.9478,3.9564,3.9511,0,0,0,0,0,0,0,0,0,0,3.9442,3.9421,3.9382,3.9383,3.9406,3.9477,3.9478,3.9509,3.9514,3.953,0,3.9546,0,3.9557,3.9571,3.9571,0,0,0,3.9406,3.9416,3.9437,3.9383,3.9407,3.9477,3.9445,3.9512,3.9518,3.9538,3.9547,3.955,3.9558,3.9571,3.9572,3.9668,3.9668,0,0,3.9402,3.9393,3.9432,3.9441,3.9432,3.9443,3.9447,3.9516,3.9524,3.9547,3.9552,3.956,3.9572,3.9573,3.9668,3.9668,0,0,0,3.939,3.939,3.9409,3.9437,3.9451,3.9445,3.945,3.9521,3.9528,3.9553,3.9561,3.9572,3.9573,3.9667,3.9668,3.9683,0,0,0,3.9388,3.9384,3.9408,3.9403,3.9449,3.9487,3.9454,3.9524,3.9532,3.956,3.9572,3.9574,3.9667,3.9668,3.9681,3.9691,0,0,0,3.9377,3.9382,3.9393,3.9402,3.9433,3.9486,3.9497,3.9526,3.9536,3.9571,3.9574,3.9666,3.9667,3.968,3.9689,3.9715,0,0,0,3.9362,3.9402,3.9393,3.944,3.9433,3.9496,3.9497,3.9544,3.9575,3.9573,3.9667,3.9668,3.968,3.9688,3.9714,3.9737,3.9745,0,0,3.9408,3.9407,3.9436,3.943,3.9493,3.9485,3.955,3.9585,3.9595,3.9643,3.9645,3.9682,3.9689,3.9715,3.9795,3.9801,0,0,0,3.9448,3.9469,3.9487,3.9519,3.9549,3.9575,3.9603,3.9616,3.9658,3.9619,3.9698,3.9703,3.9718,3.973,3.9735,3.975,3.9672,3.9672,3.9672,3.9499,3.9512,3.9562,3.9584,3.9614,3.9643,3.9669,3.9692,3.9693,3.9712,3.9727,3.9774,3.9786,3.9791,3.9806,3.9739,3.9739,3.9739,3.9739,3.9568,3.96,3.9605,3.9655,3.9668,3.9709,3.9739,3.974,3.9779,3.9763,3.9777,3.976,3.9798,3.9812,3.974,3.974,3.974,3.974,3.974,3.9603,3.9622,3.9639,3.9687,3.9723,3.9743,3.9782,3.9792,3.9801,3.9815,3.9832,3.9832,3.9834,3.9823,3.9823,3.9823,3.9823,3.9823,3.9823,3.9634,3.9654,3.9687,3.9724,3.9747,3.9777,3.9808,3.983,3.9856,3.986,3.986,3.9862,3.9799,3.9784,3.9826,3.9825,3.9825,3.9825,3.9825,3.97,3.9688,3.9738,3.9761,3.9807,3.9842,3.9855,3.9899,3.9918,3.9937,3.9936,3.9888,3.9887,3.9883,3.9871,3.9932,3.9932,3.9932,3.9932,3.9731,3.9733,3.9789,3.9825,3.9861,3.9879,3.9936,3.9961,3.9983,3.9996,3.9989,3.9973,3.9968,3.997,3.9964,3.9952,4.0034,4.0034,4.0034,3.9773,3.978,3.9827,3.9852,3.9889,3.992,3.9974,4.0015,4.0038,4.0038,4.0007,4.0003,3.9977,3.9968,3.9967,3.9957,3.9937,0,0]}]]